Weather Roundup
Issued by NWS Springfield, MO

Home | Current Version | Previous Version | Text Only | Print | Product List | Glossary On
Versions: 1 2 3 4 5 6 7 8 9 10 11 12 13 14 15 16 17 18 19 20 21 22 23 24 25 26 27 28 29 30 31 32 33 34 35 36 37 38 39 40 41 42 43 44 45 46 47 48 49 50
000
NZUS99 KSGF 272107
HRRSGF

HOURLY WEATHER
NATIONAL WEATHER SERVICE SPRINGFIELD MO
400 PM CDT SUN MAY 27 2018

......SGF CWA......

CITY           SKY/WX    TMP DP  RH WIND       PRES   REMARKS
SPRINGFIELD    MOSUNNY   91  63  39 NE5       29.90F HX  92
JOPLIN         PTSUNNY   89  68  49 S3        29.90F HX  93
WEST PLAINS    SUNNY     88  67  49 VRB3      29.92F HX  91
ROLLA          SUNNY     90  71  53 NW5       29.90F HX  96
OSAGE BEACH    SUNNY     90  69  50 CALM      29.89F HX  94
BRANSON        MOSUNNY   88  68  51 SE5       29.93F HX  91

......SURROUNDING SGF CWA......

CITY           SKY/WX    TMP DP  RH WIND       PRES   REMARKS
CHANUTE        MOSUNNY   89  71  55 CALM      29.90S HX  95
PARSONS        CLOUDY    88  71  57 VRB3      29.90F HX  94
COFFEYVILLE    MOSUNNY   90  68  48 SE6       29.87F HX  94
EMPORIA        MOSUNNY   88  67  49 SE8       29.89F HX  91
GROVE OK       MOSUNNY   90  64  43 CALM      29.90F HX  91
ROGERS AR      SUNNY     89  67  47 VRB5      29.92F HX  92
SILOAM SPRINGS CLOUDY    88  69  53 VRB3      29.91F HX  92
HARRISON AR    SUNNY     86  67  52 VRB3      29.92F
NEAR YELLVILLE SUNNY     90  68  48 VRB6      29.89F HX  94

......KANSAS AND MISSOURI......

CITY           SKY/WX    TMP DP  RH WIND       PRES   REMARKS
KANSAS CTY INT PTSUNNY   92  68  45 S6        29.87F HX  96
DOWNTOWN KC    SUNNY     94  67  41 W7        29.85F HX  97
COLUMBIA       MOSUNNY   93  68  43 VRB3      29.88F HX  97
SEDALIA        MOSUNNY   88  70  55 S7        29.90S HX  93
ST JOSEPH      CLOUDY    98  61  29 VRB5      29.84F HX  98
ST LOUIS       CLOUDY    93  70  46 N6        29.87F HX  99
SPIRIT OF STL  MOSUNNY   92  71  50 W5        29.85F THUNDER HX  98
KIRKSVILLE     SUNNY     94  69  44 CALM      29.86F HX  99
WICHITA        MOSUNNY   95  58  28 SE15      29.86F HX  94
TOPEKA         CLOUDY    95  66  38 S12       29.86F HX  98
OLATHE         CLOUDY    89  68  49 S8        29.89F HX  93

......TENNESSEE......

CITY           SKY/WX    TMP DP  RH WIND       PRES   REMARKS
MEMPHIS        TSTM      73  71  93 SW12G24   29.87F
NASHVILLE      PTSUNNY   88  64  44 SE3       29.87F

......ARKANSAS.......

CITY           SKY/WX    TMP DP  RH WIND       PRES   REMARKS
FAYETTEVILLE   CLOUDY    90  66  45 CALM      29.90F HX  92
FT SMITH       MOSUNNY   91  68  46 E6        29.86S HX  95
LITTLE ROCK    MOSUNNY   87  68  52 SE6       29.86F HX  90

......OKLAHOMA.......

CITY           SKY/WX    TMP DP  RH WIND       PRES   REMARKS
TULSA          PTSUNNY   91  64  40 SE9       29.85F HX  92
PONCA CITY     SUNNY     92  64  39 E13       29.86S HX  93
MCALESTER      CLOUDY    89  69  51 VRB3      29.86F HX  93
OKLAHOMA CITY  MOSUNNY   88  67  49 SE12G21   29.85F HX  91

......IOWA............

CITY           SKY/WX    TMP DP  RH WIND       PRES   REMARKS
DES MOINES     CLOUDY    97  65  34 S5        29.82F HX  99
QUAD CITIES    FAIR      94  65  38 SW5       29.82S HX  96

......ILLINOIS........

CITY           SKY/WX    TMP DP  RH WIND       PRES   REMARKS
QUINCY         MOSUNNY   95  67  39 S3        29.83F THUNDER HX  99
CHICAGO        FAIR      97  58  27 VRB3      29.84F HX  96





USA.gov is the U.S. government's official web portal to all federal, state and local government web resources and services.